This is the latest recevied weather packets stored in our database for station/object W2TAO. If no packets are shown the sender has not sent any weather packets the latest 10 day(s).
| Time | Temp. | Humidity | Pressure | Rain* | Wind** | Luminosity | Snow |
|---|---|---|---|---|---|---|---|
| 1778205183 | 5.56° C | 82% | 1011.1 hPa | 0 mm | - | 0 W/m² | - |
| 1778204879 | 5.56° C | 83% | 1011.1 hPa | 0 mm | - | 0 W/m² | - |
| 1778204576 | 5.56° C | 83% | 1011.1 hPa | 0 mm | - | 0 W/m² | - |
| 1778204272 | 5.56° C | 83% | 1011.1 hPa | 0 mm | - | 0 W/m² | - |
| 1778203968 | 5.56° C | 82% | 1011.2 hPa | 0 mm | - | 0 W/m² | - |
| 1778203666 | 5.56° C | 81% | 1011.2 hPa | 0 mm | - | 0 W/m² | - |
| 1778203362 | 5.56° C | 81% | 1011.1 hPa | 0 mm | - | 0 W/m² | - |
| 1778203061 | 5.56° C | 79% | 1010.8 hPa | 0 mm | - | 0 W/m² | - |
| 1778202758 | 5.56° C | 79% | 1011 hPa | 0 mm | - | 0 W/m² | - |
| 1778202455 | 5.56° C | 78% | 1010.8 hPa | 0 mm | - | 0 W/m² | - |
| 1778202153 | 5.56° C | 77% | 1010.8 hPa | 0 mm | - | 0 W/m² | - |
| 1778201850 | 6.11° C | 76% | 1010.7 hPa | 0 mm | - | 0 W/m² | - |
| 1778201546 | 6.11° C | 75% | 1010.7 hPa | 0 mm | - | 0 W/m² | - |
| 1778201242 | 6.67° C | 75% | 1010.7 hPa | 0 mm | - | 0 W/m² | - |
| 1778200938 | 6.67° C | 74% | 1010.4 hPa | 0 mm | - | 0 W/m² | - |
| 1778200635 | 6.67° C | 74% | 1010.5 hPa | 0 mm | - | 0 W/m² | - |
| 1778200332 | 7.22° C | 72% | 1010.5 hPa | 0 mm | - | 0 W/m² | - |
| 1778200029 | 7.22° C | 71% | 1010.3 hPa | 0 mm | - | 0 W/m² | - |
| 1778199727 | 7.78° C | 71% | 1010.4 hPa | 0 mm | - | 0 W/m² | - |
| 1778199422 | 7.78° C | 69% | 1010.4 hPa | 0 mm | - | 0 W/m² | - |
| 1778199118 | 8.33° C | 68% | 1010.3 hPa | 0 mm | - | 1 W/m² | - |
| 1778198814 | 8.89° C | 66% | 1010.3 hPa | 0 mm | - | 2 W/m² | - |
| 1778198511 | 8.89° C | 59% | 1010.2 hPa | 0 mm | - | 3 W/m² | - |
| 1778198208 | 9.44° C | 58% | 1010.2 hPa | 0 mm | - | 6 W/m² | - |
| 1778197905 | 9.44° C | 59% | 1010 hPa | 0 mm | - | 9 W/m² | - |
* Rain latest hour (hover to see other rain measurements)
** Current wind speed in m/s (hover to see current wind gust speed)